This demonstration page uses our WeatherBlox Daily Observations layout. Learn more.

Left ArrowRight Arrow

Hourly Observations for October 26, 2016

Temp ( °F °C ) Dew Point ( °F °C ) Humidity (%) Winds ( mph kmh ) Pressure ( in mb ) Visibility ( mi km ) Precip ( " mm )
12:15 am 00:15 Clear 39 4 36 2 87 87 N N/A 30.45 1031 10 16 N/A
12:35 am 00:35 Clear 41 5 36 2 81 81 N N/A 30.45 1031 10 16 N/A
12:55 am 00:55 Clear 39 4 36 2 87 87 N N/A 30.45 1031 10 16 N/A
1:15 am 01:15 Clear 39 4 36 2 87 87 N N/A 30.45 1031 10 16 N/A
1:35 am 01:35 Clear 37 3 36 2 93 93 N N/A 30.45 1031 10 16 N/A
1:55 am 01:55 Clear 37 3 36 2 93 93 N N/A 30.45 1031 10 16 N/A
2:15 am 02:15 Clear 36 2 36 2 100 100 W 3 6 30.45 1031 10 16 N/A
2:35 am 02:35 Clear 36 2 36 2 100 100 W 3 6 30.45 1031 10 16 N/A
2:55 am 02:55 Clear 36 2 36 2 100 100 W 3 6 30.45 1031 10 16 N/A
3:15 am 03:15 Clear 36 2 36 2 100 100 N N/A 30.45 1031 10 16 N/A
3:35 am 03:35 Clear 36 2 36 2 100 100 N N/A 30.45 1031 10 16 N/A
3:55 am 03:55 Clear 36 2 36 2 100 100 WNW 3 6 30.45 1031 10 16 N/A
4:15 am 04:15 Clear 36 2 36 2 100 100 NNW 3 6 30.45 1031 10 16 N/A
4:35 am 04:35 Clear 36 2 36 2 100 100 N 3 6 30.45 1031 10 16 N/A
4:55 am 04:55 Clear 37 3 36 2 93 93 N N/A 30.45 1031 10 16 N/A
5:15 am 05:15 Clear 34 1 34 1 100 100 NW 3 6 30.45 1031 10 16 N/A
5:35 am 05:35 Clear 36 2 34 1 93 93 S 5 7 30.45 1031 10 16 N/A
5:55 am 05:55 Clear 36 2 34 1 93 93 N N/A 30.48 1032 10 16 N/A
6:15 am 06:15 Clear 34 1 34 1 100 100 N N/A 30.48 1032 10 16 N/A
6:35 am 06:35 Clear 34 1 34 1 100 100 N N/A 30.48 1032 10 16 N/A
6:55 am 06:55 Clear 34 1 34 1 100 100 N N/A 30.48 1032 10 16 N/A
7:15 am 07:15 Clear 34 1 34 1 100 100 N N/A 30.48 1032 10 16 N/A
7:35 am 07:35 Sunny 34 1 34 1 100 100 W 5 7 30.48 1032 10 16 N/A
7:55 am 07:55 Sunny 34 1 34 1 100 100 WNW 3 6 30.48 1032 10 16 N/A
8:15 am 08:15 Sunny 37 3 36 2 93 93 N N/A 30.48 1032 10 16 N/A
8:35 am 08:35 Sunny 37 3 36 2 93 93 N N/A 30.50 1033 10 16 N/A
8:55 am 08:55 Sunny 41 5 37 3 87 87 N N/A 30.50 1033 10 16 N/A
9:15 am 09:15 Sunny 43 6 37 3 81 81 N N/A 30.50 1033 10 16 N/A
9:35 am 09:35 Sunny 45 7 36 2 71 71 N 3 6 30.50 1033 10 16 N/A
9:55 am 09:55 Sunny 45 7 37 3 76 76 N 3 6 30.53 1034 10 16 N/A
10:15 am 10:15 Sunny 46 8 36 2 66 66 N 3 6 30.53 1034 10 16 N/A
10:35 am 10:35 Sunny 46 8 36 2 66 66 N N/A 30.50 1033 10 16 N/A
10:55 am 10:55 Sunny 50 10 36 2 58 58 NNE 5 7 30.50 1033 10 16 N/A
11:15 am 11:15 Sunny 50 10 37 3 62 62 N N/A 30.50 1033 10 16 N/A
11:35 am 11:35 Sunny 52 11 37 3 58 58 NNE 5 7 30.50 1033 10 16 N/A
11:55 am 11:55 Sunny 52 11 37 3 58 58 undefined N/A 30.48 1032 10 16 N/A
12:15 pm 12:15 Sunny 52 11 36 2 54 54 N N/A 30.48 1032 10 16 N/A
12:35 pm 12:35 Sunny 54 12 37 3 54 54 N N/A 30.48 1032 10 16 N/A
12:55 pm 12:55 Sunny 54 12 36 2 51 51 N N/A 30.48 1032 10 16 N/A
1:15 pm 13:15 Sunny 54 12 36 2 51 51 N N/A 30.45 1031 10 16 N/A
1:35 pm 13:35 Sunny 55 13 36 2 47 47 W 5 7 30.45 1031 10 16 N/A
1:55 pm 13:55 Sunny 55 13 37 3 51 51 N N/A 30.45 1031 10 16 N/A
2:15 pm 14:15 Sunny 55 13 37 3 51 51 WNW 5 7 30.45 1031 10 16 N/A
2:35 pm 14:35 Sunny 55 13 36 2 47 47 N N/A 30.42 1030 10 16 N/A
2:55 pm 14:55 Sunny 57 14 36 2 44 44 N N/A 30.39 1029 10 16 N/A
3:15 pm 15:15 Sunny 57 14 36 2 44 44 ESE 6 9 30.39 1029 10 16 N/A
3:35 pm 15:35 Sunny 55 13 36 2 47 47 SSW 3 6 30.42 1030 10 16 N/A
3:55 pm 15:55 Sunny 55 13 36 2 47 47 S 3 6 30.42 1030 10 16 N/A
4:15 pm 16:15 Sunny 55 13 37 3 51 51 N N/A 30.42 1030 10 16 N/A
4:35 pm 16:35 Partly Cloudy 55 13 36 2 47 47 S 5 7 30.36 1028 10 16 N/A
4:55 pm 16:55 Cloudy 55 13 37 3 51 51 N N/A 30.36 1028 10 16 N/A
5:15 pm 17:15 Cloudy 55 13 37 3 51 51 N N/A 30.36 1028 10 16 N/A
5:35 pm 17:35 Cloudy 55 13 37 3 51 51 N N/A 30.36 1028 10 16 N/A
5:55 pm 17:55 Cloudy 55 13 37 3 51 51 NE 3 6 30.36 1028 10 16 N/A
6:15 pm 18:15 Partly Cloudy 55 13 37 3 51 51 E 3 6 30.36 1028 10 16 N/A
6:35 pm 18:35 Clear 54 12 37 3 54 54 E 3 6 30.39 1029 10 16 N/A
6:55 pm 18:55 Clear 54 12 37 3 54 54 SSE 3 6 30.39 1029 10 16 N/A
7:15 pm 19:15 Clear 54 12 37 3 54 54 SE 3 6 30.39 1029 10 16 N/A
7:35 pm 19:35 Partly Cloudy 52 11 37 3 58 58 N N/A 30.42 1030 10 16 N/A
7:55 pm 19:55 Cloudy 54 12 37 3 54 54 N N/A 30.42 1030 10 16 N/A
8:15 pm 20:15 Cloudy 54 12 39 4 58 58 N N/A 30.42 1030 10 16 N/A
8:35 pm 20:35 Mostly Cloudy 54 12 39 4 58 58 N N/A 30.42 1030 10 16 N/A
8:55 pm 20:55 Mostly Cloudy 52 11 41 5 67 67 N N/A 30.42 1030 10 16 N/A
9:15 pm 21:15 Cloudy 52 11 41 5 67 67 E 3 6 30.42 1030 10 16 N/A
9:35 pm 21:35 Cloudy 52 11 41 5 67 67 ESE 3 6 30.42 1030 10 16 N/A
9:55 pm 21:55 Cloudy 52 11 41 5 67 67 ESE 3 6 30.42 1030 10 16 N/A
10:15 pm 22:15 Cloudy 52 11 41 5 67 67 SE 5 7 30.42 1030 10 16 N/A
10:35 pm 22:35 Cloudy 52 11 41 5 67 67 SE 5 7 30.42 1030 10 16 N/A
10:55 pm 22:55 Cloudy 52 11 43 6 72 72 SE 3 6 30.42 1030 10 16 N/A
11:15 pm 23:15 Mostly Cloudy 50 10 43 6 76 76 SE 3 6 30.42 1030 10 16 N/A
11:35 pm 23:35 Mostly Cloudy 50 10 43 6 76 76 SE 3 6 30.42 1030 10 16 N/A
11:55 pm 23:55 Mostly Cloudy 50 10 43 6 76 76 SSE 5 7 30.42 1030 10 16 N/A

Powered by AerisWeather